DW4604 Weather Reports


Display with metric or nautical units.
time (UTC)temp
F
wind
direction
speed
MPH
gust
MPH
rain 1hr
in
rain 24hr
in
rain mn
in
humidity
%
barometer
mb
20260507115448 67 0 0.0 0.0 0.00 0.00 0.00 69 1009.7
20260507114948 66 0 0.0 0.0 0.00 0.00 0.00 67 1009.8
20260507114448 67 0 0.0 0.0 0.00 0.00 0.00 68 1009.8
20260507113948 67 0 0.0 0.0 0.00 0.00 0.00 68 1009.7
20260507113449 67 0 0.0 0.0 0.00 0.00 0.00 67 1009.7
20260507112949 67 0 0.0 0.0 0.00 0.00 0.00 67 1009.7
20260507112448 68 0 0.0 0.0 0.00 0.00 0.00 67 1009.7
20260507111949 68 0 0.0 0.0 0.00 0.00 0.00 65 1009.7
20260507111449 69 0 0.0 0.0 0.00 0.00 0.00 65 1009.7
20260507110449 69 0 0.0 0.0 0.00 0.00 0.00 67 1009.8
20260507105950 69 0 0.0 0.0 0.00 0.00 0.00 67 1009.8
20260507105448 68 0 0.0 0.0 0.00 0.00 0.00 67 1009.7
20260507104949 68 0 0.0 0.0 0.00 0.00 0.00 70 1009.7
20260507104449 67 0 0.0 0.0 0.00 0.00 0.00 69 1009.7
20260507103449 67 0 0.0 0.0 0.00 0.00 0.00 70 1009.6
20260507102949 67 0 0.0 0.0 0.00 0.00 0.00 70 1009.6
20260507102448 67 0 0.0 0.0 0.00 0.00 0.00 69 1009.6
20260507101948 66 0 0.0 0.0 0.00 0.00 0.00 71 1009.6
20260507100948 67 0 0.0 0.0 0.00 0.00 0.00 71 1009.7
20260507095449 67 0 0.0 0.0 0.00 0.00 0.00 68 1009.4
20260507094949 68 0 0.0 0.0 0.00 0.00 0.00 70 1009.5
20260507094449 67 0 0.0 0.0 0.00 0.00 0.00 70 1009.4
20260507093949 67 0 0.0 0.0 0.00 0.00 0.00 69 1009.3
20260507093450 67 0 0.0 0.0 0.00 0.00 0.00 70 1009.3
20260507092949 67 0 0.0 0.0 0.00 0.00 0.00 70 1009.3
20260507092449 67 0 0.0 0.0 0.00 0.00 0.00 70 1009.3
20260507091949 67 0 0.0 0.0 0.00 0.00 0.00 72 1009.2
20260507090949 65 0 0.0 0.0 0.00 0.00 0.00 74 1009.1
20260507090449 65 0 0.0 0.0 0.00 0.00 0.00 73 1009.1
20260507085949 65 0 0.0 0.0 0.00 0.00 0.00 73 1009.0
20260507085448 65 0 0.0 0.0 0.00 0.00 0.00 73 1008.9
20260507084449 66 0 0.0 0.0 0.00 0.00 0.00 73 1008.9
20260507083950 65 0 0.0 0.0 0.00 0.00 0.00 74 1008.8
20260507083450 65 0 0.0 0.0 0.00 0.00 0.00 76 1008.7
20260507082949 64 0 0.0 0.0 0.00 0.00 0.00 77 1008.7
20260507082450 64 0 0.0 0.0 0.00 0.00 0.00 77 1008.6
20260507081950 64 0 0.0 0.0 0.00 0.00 0.00 76 1008.5
20260507081449 64 0 0.0 0.0 0.00 0.00 0.00 76 1008.5
20260507080949 64 0 0.0 0.0 0.00 0.00 0.00 75 1008.5
20260507080449 65 0 0.0 0.0 0.00 0.00 0.00 73 1008.5
20260507075949 66 0 0.0 0.0 0.00 0.00 0.00 74 1008.5
20260507075449 65 0 0.0 0.0 0.00 0.00 0.00 76 1008.4
20260507074951 64 0 0.0 0.0 0.00 0.00 0.00 76 1008.4
20260507073949 64 0 0.0 0.0 0.00 0.00 0.00 77 1008.1
20260507073449 63 0 0.0 0.0 0.00 0.00 0.00 78 1008.0
20260507072950 63 0 0.0 0.0 0.00 0.00 0.00 78 1008.0
20260507072450 63 0 0.0 0.0 0.00 0.00 0.00 79 1008.0
20260507071450 62 0 0.0 0.0 0.00 0.00 0.00 78 1008.0
20260507070949 63 0 0.0 0.0 0.00 0.00 0.00 78 1007.8
20260507070450 63 0 0.0 0.0 0.00 0.00 0.00 79 1007.7
20260507065951 63 0 0.0 0.0 0.00 0.00 0.00 78 1007.6
20260507065451 63 0 0.0 0.0 0.00 0.00 0.00 79 1007.7
20260507064950 62 0 0.0 0.0 0.00 0.00 0.00 78 1007.7
20260507064450 62 0 0.0 0.0 0.00 0.00 0.00 79 1007.8
20260507063949 62 0 0.0 0.0 0.00 0.00 0.00 78 1007.7
20260507063449 62 0 0.0 0.0 0.00 0.00 0.00 79 1007.6
20260507062450 61 0 0.0 0.0 0.00 0.00 0.00 80 1007.6
20260507061949 61 0 0.0 0.0 0.00 0.00 0.00 80 1007.6
20260507061450 61 0 0.0 0.0 0.00 0.00 0.00 81 1007.5
20260507060449 60 0 0.0 0.0 0.00 0.00 0.00 81 1007.5
20260507055949 60 0 0.0 0.0 0.00 0.00 0.00 81 1007.5
20260507055450 60 0 0.0 0.0 0.00 0.00 0.00 81 1007.4
20260507054949 60 0 0.0 0.0 0.00 0.00 0.00 81 1007.3
20260507054450 60 0 0.0 0.0 0.00 0.00 0.00 81 1007.3
20260507053951 60 0 0.0 0.0 0.00 0.00 0.00 80 1007.2
20260507052951 60 0 0.0 0.0 0.00 0.00 0.00 80 1007.1
20260507052450 60 0 0.0 0.0 0.00 0.00 0.00 81 1007.1
20260507051950 60 0 0.0 0.0 0.00 0.00 0.00 81 1007.0
20260507051450 60 0 0.0 0.0 0.00 0.00 0.00 81 1007.0
20260507045950 60 0 0.0 0.0 0.00 0.00 0.00 80 1006.8
20260507045449 60 0 0.0 0.0 0.00 0.00 0.00 80 1006.8
20260507044951 60 0 0.0 0.0 0.00 0.00 0.00 80 1006.7
20260507044449 60 0 0.0 0.0 0.00 0.00 0.00 80 1006.7
20260507043950 60 0 0.0 0.0 0.00 0.00 0.00 80 1006.6
20260507043450 60 0 0.0 0.0 0.00 0.00 0.00 80 1006.5
20260507042950 60 0 0.0 0.0 0.00 0.00 0.00 80 1006.5
20260507041950 59 0 0.0 0.0 0.00 0.00 0.00 81 1006.4
20260507041449 59 0 0.0 0.0 0.00 0.00 0.00 82 1006.4
20260507040951 58 0 0.0 0.0 0.00 0.00 0.00 83 1006.3
20260507040451 58 0 0.0 0.0 0.00 0.00 0.00 83 1006.2
20260507035950 58 0 0.0 0.0 0.00 0.00 0.00 84 1006.2
20260507035451 57 0 0.0 0.0 0.00 0.00 0.00 85 1006.1
20260507034949 57 0 0.0 0.0 0.00 0.00 0.00 84 1006.1
20260507034449 57 0 0.0 0.0 0.00 0.00 0.00 85 1006.2
20260507033450 57 0 0.0 0.0 0.00 0.00 0.00 85 1006.0
20260507032450 57 0 0.0 0.0 0.00 0.00 0.00 86 1005.8
20260507031450 57 0 0.0 0.0 0.00 0.00 0.00 85 1005.8
20260507030950 57 0 0.0 0.0 0.00 0.00 0.00 85 1005.7
20260507025950 56 0 0.0 0.0 0.00 0.00 0.00 85 1005.6
20260507025450 56 0 0.0 0.0 0.00 0.00 0.00 85 1005.6
20260507024450 56 0 0.0 0.0 0.00 0.00 0.00 85 1005.7
20260507023950 56 0 0.0 0.0 0.00 0.00 0.00 85 1005.7
20260507023451 56 0 0.0 0.0 0.00 0.00 0.00 85 1005.6
20260507022951 56 0 0.0 0.0 0.00 0.00 0.00 85 1005.6
20260507022452 56 0 0.0 0.0 0.00 0.00 0.00 85 1005.6
20260507021950 56 0 0.0 0.0 0.00 0.00 0.00 85 1005.6
20260507020950 55 0 0.0 0.0 0.00 0.00 0.00 85 1005.5
20260507020451 55 0 0.0 0.0 0.00 0.00 0.00 85 1005.5
20260507015952 55 0 0.0 0.0 0.00 0.00 0.00 85 1005.4
20260507015450 55 0 0.0 0.0 0.00 0.00 0.00 85 1005.4
20260507014950 55 0 0.0 0.0 0.00 0.00 0.00 84 1005.4
20260507013950 55 0 0.0 0.0 0.00 0.00 0.00 84 1005.2
20260507013450 55 0 0.0 0.0 0.00 0.00 0.00 83 1005.3
20260507012950 55 0 0.0 0.0 0.00 0.00 0.00 83 1005.4
20260507011950 55 0 0.0 0.0 0.00 0.00 0.00 82 1005.4
20260507011450 56 0 0.0 0.0 0.00 0.00 0.00 82 1005.4
20260507010951 56 0 0.0 0.0 0.00 0.00 0.00 81 1005.4
20260507010452 56 0 0.0 0.0 0.00 0.00 0.00 80 1005.3
20260507005950 56 0 0.0 0.0 0.00 0.00 0.00 80 1005.2
20260507005450 57 0 0.0 0.0 0.00 0.00 0.00 79 1005.3
20260507004952 57 0 0.0 0.0 0.00 0.00 0.00 79 1005.3
20260507004450 58 0 0.0 0.0 0.00 0.00 0.00 79 1005.3
20260507003951 58 0 0.0 0.0 0.00 0.00 0.00 78 1005.2
20260507003451 58 0 0.0 0.0 0.00 0.00 0.00 78 1005.3
20260507002951 58 0 0.0 0.0 0.00 0.00 0.00 78 1005.2
20260507002452 58 0 0.0 0.0 0.00 0.00 0.00 77 1005.2
20260507001951 59 0 0.0 0.0 0.00 0.00 0.00 77 1005.2
20260507001451 59 0 0.0 0.0 0.00 0.00 0.00 77 1005.1
20260507000950 60 0 0.0 0.0 0.00 0.00 0.00 76 1005.1
20260507000451 60 0 0.0 0.0 0.00 0.00 0.00 75 1005.2
20260506235951 61 0 0.0 0.0 0.00 0.00 0.00 74 1005.2
20260506235450 61 0 0.0 0.0 0.00 0.00 0.00 73 1005.2
20260506233950 62 0 0.0 0.0 0.00 0.00 0.00 72 1005.3
20260506233451 62 0 0.0 0.0 0.00 0.00 0.00 72 1005.2
20260506232952 62 0 0.0 0.0 0.00 0.00 0.00 71 1005.2
20260506231951 63 0 0.0 0.0 0.00 0.00 0.00 70 1005.3
20260506231450 63 0 0.0 0.0 0.00 0.00 0.00 69 1005.2
20260506230952 63 0 0.0 0.0 0.00 0.00 0.00 69 1005.3
20260506230451 64 0 0.0 0.0 0.00 0.00 0.00 69 1005.3
20260506225951 64 0 0.0 0.0 0.00 0.00 0.00 68 1005.3
20260506225451 64 0 0.0 0.0 0.00 0.00 0.00 68 1005.3
20260506224950 65 0 0.0 0.0 0.00 0.00 0.00 68 1005.3
20260506224450 65 0 0.0 0.0 0.00 0.00 0.00 68 1005.3
20260506223952 64 0 0.0 0.0 0.00 0.00 0.00 68 1005.2
20260506223451 64 0 0.0 0.0 0.00 0.00 0.00 69 1005.3
20260506222952 64 0 0.0 0.0 0.00 0.00 0.00 69 1005.3
20260506221951 62 0 0.0 0.0 0.00 0.00 0.00 71 1005.3
20260506221451 62 0 0.0 0.0 0.00 0.00 0.00 71 1005.2
20260506220951 62 0 0.0 0.0 0.00 0.00 0.00 71 1005.1
20260506220453 62 0 0.0 0.0 0.00 0.00 0.00 72 1005.1
20260506215952 61 0 0.0 0.0 0.00 0.00 0.00 73 1005.2
20260506215452 61 0 0.0 0.0 0.00 0.00 0.00 74 1005.2
20260506214952 61 0 0.0 0.0 0.00 0.00 0.00 75 1005.2
20260506214452 61 0 0.0 0.0 0.00 0.00 0.00 74 1005.2
20260506213452 61 0 0.0 0.0 0.00 0.00 0.00 73 1005.2
20260506212952 62 0 0.0 0.0 0.00 0.00 0.00 72 1005.2
20260506212451 62 0 0.0 0.0 0.00 0.00 0.00 72 1005.3
20260506210951 62 0 0.0 0.0 0.00 0.00 0.00 71 1005.3
20260506210451 63 0 0.0 0.0 0.00 0.00 0.00 70 1005.3
20260506205452 64 0 0.0 0.0 0.00 0.00 0.00 68 1005.2
20260506204951 64 0 0.0 0.0 0.00 0.00 0.00 68 1005.2
20260506204452 64 0 0.0 0.0 0.00 0.00 0.00 68 1005.1
20260506203951 64 0 0.0 0.0 0.00 0.00 0.00 68 1005.1
20260506202453 65 0 0.0 0.0 0.00 0.00 0.00 65 1005.1
20260506201952 65 0 0.0 0.0 0.00 0.00 0.00 65 1005.0
20260506201452 65 0 0.0 0.0 0.00 0.00 0.00 66 1004.9
20260506200951 65 0 0.0 0.0 0.00 0.00 0.00 66 1004.9
20260506200451 65 0 0.0 0.0 0.00 0.00 0.00 65 1004.9
20260506195452 65 0 0.0 0.0 0.00 0.00 0.00 66 1004.9
20260506194952 65 0 0.0 0.0 0.00 0.00 0.00 67 1004.9
20260506194452 64 0 0.0 0.0 0.00 0.00 0.00 68 1004.9
20260506193451 64 0 0.0 0.0 0.00 0.00 0.00 68 1004.9
20260506192951 64 0 0.0 0.0 0.00 0.00 0.00 69 1004.8
20260506192453 63 0 0.0 0.0 0.00 0.00 0.00 70 1004.8
20260506191952 63 0 0.0 0.0 0.00 0.00 0.00 70 1004.8
20260506191452 64 0 0.0 0.0 0.00 0.00 0.00 69 1004.8
20260506190952 64 0 0.0 0.0 0.00 0.00 0.00 68 1004.8
20260506190452 65 0 0.0 0.0 0.00 0.00 0.00 67 1004.8
20260506185453 65 0 0.0 0.0 0.00 0.00 0.00 68 1004.7
20260506184952 65 0 0.0 0.0 0.00 0.00 0.00 66 1004.7
20260506184452 66 0 0.0 0.0 0.00 0.00 0.00 64 1004.6
20260506183952 67 0 0.0 0.0 0.00 0.00 0.00 63 1004.6
20260506182953 68 0 0.0 0.0 0.00 0.00 0.00 60 1004.4
20260506182453 69 0 0.0 0.0 0.00 0.00 0.00 59 1004.4
20260506181953 69 0 0.0 0.0 0.00 0.00 0.00 59 1004.3
20260506181452 69 0 0.0 0.0 0.00 0.00 0.00 58 1004.3
20260506180952 69 0 0.0 0.0 0.00 0.00 0.00 58 1004.3
20260506180453 69 0 0.0 0.0 0.00 0.00 0.00 58 1004.3
20260506175952 70 0 0.0 0.0 0.00 0.00 0.00 57 1004.3
20260506174952 71 0 0.0 0.0 0.00 0.00 0.00 56 1004.3
20260506174452 71 0 0.0 0.0 0.00 0.00 0.00 56 1004.2
20260506173954 71 0 0.0 0.0 0.00 0.00 0.00 56 1004.2
20260506172952 71 0 0.0 0.0 0.00 0.00 0.00 55 1004.3
20260506172452 71 0 0.0 0.0 0.00 0.00 0.00 56 1004.3
20260506171952 71 0 0.0 0.0 0.00 0.00 0.00 56 1004.3
20260506171452 70 0 0.0 0.0 0.00 0.00 0.00 59 1004.4
20260506170952 70 0 0.0 0.0 0.00 0.00 0.00 59 1004.4
20260506170452 70 0 0.0 0.0 0.00 0.00 0.00 59 1004.4
20260506165453 70 0 0.0 0.0 0.00 0.00 0.00 60 1004.4
20260506164952 70 0 0.0 0.0 0.00 0.00 0.00 60 1004.3
20260506164453 71 0 0.0 0.0 0.00 0.00 0.00 58 1004.3
20260506163952 71 0 0.0 0.0 0.00 0.00 0.00 58 1004.3
20260506162953 71 0 0.0 0.0 0.00 0.00 0.00 55 1004.5
20260506162452 72 0 0.0 0.0 0.00 0.00 0.00 55 1004.6
20260506161953 72 0 0.0 0.0 0.00 0.00 0.00 52 1004.6
20260506161452 74 0 0.0 0.0 0.00 0.00 0.00 50 1004.5
20260506160952 75 0 0.0 0.0 0.00 0.00 0.00 51 1004.5
20260506160453 75 0 0.0 0.0 0.00 0.00 0.00 49 1004.4
20260506155953 75 0 0.0 0.0 0.00 0.00 0.00 50 1004.5
20260506155452 75 0 0.0 0.0 0.00 0.00 0.00 47 1004.5
20260506154952 76 0 0.0 0.0 0.00 0.00 0.00 48 1004.6
20260506154453 76 0 0.0 0.0 0.00 0.00 0.00 47 1004.5
20260506153952 76 0 0.0 0.0 0.00 0.00 0.00 47 1004.6
20260506152452 76 0 0.0 0.0 0.00 0.00 0.00 45 1004.7
20260506151453 77 0 0.0 0.0 0.00 0.00 0.00 45 1004.7
20260506150954 77 0 0.0 0.0 0.00 0.00 0.00 45 1004.7
20260506145952 77 0 0.0 0.0 0.00 0.00 0.00 47 1004.8
20260506145453 76 0 0.0 0.0 0.00 0.00 0.00 45 1004.9
20260506144952 78 0 0.0 0.0 0.00 0.00 0.00 44 1004.9
20260506144453 78 0 0.0 0.0 0.00 0.00 0.00 44 1005.0
20260506143954 79 0 0.0 0.0 0.00 0.00 0.00 43 1005.0
20260506143453 79 0 0.0 0.0 0.00 0.00 0.00 44 1005.0
20260506142953 78 0 0.0 0.0 0.00 0.00 0.00 45 1005.1
20260506142453 78 0 0.0 0.0 0.00 0.00 0.00 45 1005.1
20260506141952 78 0 0.0 0.0 0.00 0.00 0.00 44 1005.1
20260506141452 78 0 0.0 0.0 0.00 0.00 0.00 43 1005.2
20260506140452 79 0 0.0 0.0 0.00 0.00 0.00 43 1005.1
20260506135952 79 0 0.0 0.0 0.00 0.00 0.00 44 1005.2
20260506134453 79 0 0.0 0.0 0.00 0.00 0.00 45 1005.2
20260506133953 79 0 0.0 0.0 0.00 0.00 0.00 43 1005.3
20260506133453 78 0 0.0 0.0 0.00 0.00 0.00 43 1005.4
20260506132953 78 0 0.0 0.0 0.00 0.00 0.00 42 1005.4
20260506132453 79 0 0.0 0.0 0.00 0.00 0.00 45 1005.4
20260506131953 78 0 0.0 0.0 0.00 0.00 0.00 47 1005.4
20260506131454 79 0 0.0 0.0 0.00 0.00 0.00 46 1005.4
20260506130953 79 0 0.0 0.0 0.00 0.00 0.00 45 1005.4
20260506130454 79 0 0.0 0.0 0.00 0.00 0.00 45 1005.5
20260506125453 78 0 0.0 0.0 0.00 0.00 0.00 48 1005.5
20260506124453 77 0 0.0 0.0 0.00 0.00 0.00 48 1005.7
20260506123953 76 0 0.0 0.0 0.00 0.00 0.00 51 1005.7
20260506123453 76 0 0.0 0.0 0.00 0.00 0.00 48 1005.7
20260506122954 78 0 0.0 0.0 0.00 0.00 0.00 46 1005.7
20260506122454 78 0 0.0 0.0 0.00 0.00 0.00 49 1005.7
20260506121953 78 0 0.0 0.0 0.00 0.00 0.00 49 1005.7
20260506121454 78 0 0.0 0.0 0.00 0.00 0.00 48 1005.6
20260506120953 78 0 0.0 0.0 0.00 0.00 0.00 50 1005.7
20260506120454 78 0 0.0 0.0 0.00 0.00 0.00 48 1005.8
20260506115953 77 0 0.0 0.0 0.00 0.00 0.00 47 1005.6